• în Republica Moldova
  • Lista ţărilor
  • Pe 7 zile
  • Temperatura apei
  • Hartă satelitară
  • Meteo pe hartă
  • Widget-uri
  • user-avatar
    Intrare

    Meteo pe oră la Salzburg

    Astăzi, 23 Noiembrie, Joi

    Timp Temperatura Precipitaţii Vânt Presiune Umiditate
    00:00 -4°C° 0 mm 2 m/s 622 mmHg 78%
    01:00 -4°C° 0 mm 2 m/s 622 mmHg 78%
    02:00 -4°C° 0 mm 2 m/s 622 mmHg 78%
    03:00 -4°C° 0 mm 2 m/s 622 mmHg 79%
    04:00 -4°C° 0 mm 2 m/s 621 mmHg 79%
    05:00 -4°C° 0 mm 2 m/s 622 mmHg 79%
    06:00 -4°C° 0 mm 2 m/s 622 mmHg 80%
    07:00 -4°C° 0 mm 2 m/s 622 mmHg 80%
    08:00 -3°C° 0 mm 2 m/s 622 mmHg 80%
    09:00 -1°C° 0 mm 2 m/s 623 mmHg 80%
    10:00 +2°C° 0 mm 1 m/s 624 mmHg 80%
    11:00 +3°C° 0 mm 1 m/s 624 mmHg 81%
    12:00 +4°C° 0 mm 1 m/s 624 mmHg 82%
    13:00 +5°C° 0 mm 1 m/s 624 mmHg 83%
    14:00 +4°C° 0 mm 1 m/s 624 mmHg 83%
    15:00 +3°C° 0 mm 1 m/s 624 mmHg 84%
    16:00 +2°C° 0 mm 1 m/s 624 mmHg 84%
    17:00 +1°C° 0 mm 1 m/s 624 mmHg 80%
    18:00 -1°C° 0 mm 2 m/s 624 mmHg 77%
    19:00 -2°C° 0 mm 2 m/s 624 mmHg 73%
    20:00 -2°C° 0 mm 2 m/s 625 mmHg 72%
    21:00 -2°C° 0 mm 2 m/s 625 mmHg 71%
    22:00 -2°C° 0 mm 2 m/s 625 mmHg 70%
    23:00 0°C° 0 mm 1 m/s 625 mmHg 71%

    Mâine, 24 Noiembrie, Vineri

    Timp Temperatura Precipitaţii Vânt Presiune Umiditate
    00:00 -1°C° 0 mm 1 m/s 625 mmHg 72%
    01:00 -1°C° 0 mm 1 m/s 626 mmHg 73%
    02:00 -1°C° 0 mm 1 m/s 625 mmHg 74%
    03:00 -1°C° 0 mm 1 m/s 625 mmHg 75%
    04:00 -3°C° 0 mm 2 m/s 625 mmHg 76%
    05:00 -3°C° 0 mm 2 m/s 625 mmHg 77%
    06:00 -3°C° 0 mm 2 m/s 625 mmHg 77%
    07:00 -3°C° 0 mm 2 m/s 625 mmHg 78%
    08:00 -2°C° 0 mm 2 m/s 625 mmHg 77%
    09:00 -1°C° 0 mm 2 m/s 626 mmHg 76%
    10:00 +2°C° 0 mm 2 m/s 626 mmHg 75%
    11:00 +3°C° 0 mm 2 m/s 626 mmHg 75%
    12:00 +4°C° 0 mm 2 m/s 626 mmHg 76%
    13:00 +5°C° 0 mm 2 m/s 626 mmHg 77%
    14:00 +4°C° 0 mm 2 m/s 625 mmHg 79%
    15:00 +2°C° 0 mm 2 m/s 625 mmHg 81%
    16:00 +1°C° 0 mm 2 m/s 624 mmHg 84%
    17:00 -1°C° 0 mm 2 m/s 624 mmHg 83%
    18:00 -1°C° 0 mm 2 m/s 624 mmHg 82%
    19:00 -2°C° 0 mm 2 m/s 624 mmHg 81%
    20:00 -2°C° 0 mm 2 m/s 624 mmHg 80%
    21:00 0°C° 0 mm 1 m/s 624 mmHg 79%
    22:00 0°C° 0 mm 1 m/s 624 mmHg 78%
    23:00 0°C° 0 mm 1 m/s 624 mmHg 78%

    Poimâine, 25 Noiembrie, Sâmbătă

    Timp Temperatura Precipitaţii Vânt Presiune Umiditate
    00:00 0°C° 0 mm 1 m/s 624 mmHg 77%
    01:00 0°C° 0 mm 1 m/s 624 mmHg 77%
    02:00 -1°C° 0 mm 1 m/s 623 mmHg 79%
    03:00 -3°C° 0 mm 2 m/s 622 mmHg 81%
    04:00 -4°C° 0 mm 2 m/s 622 mmHg 83%
    05:00 -4°C° 0 mm 2 m/s 621 mmHg 85%
    06:00 -4°C° 0 mm 2 m/s 621 mmHg 86%
    07:00 -4°C° 0 mm 2 m/s 621 mmHg 88%
    08:00 -3°C° 0 mm 2 m/s 621 mmHg 87%
    09:00 -1°C° 0 mm 2 m/s 620 mmHg 86%
    10:00 +1°C° 0 mm 2 m/s 620 mmHg 85%
    11:00 +1°C° 0 mm 2 m/s 620 mmHg 85%
    12:00 +2°C° 0 mm 2 m/s 620 mmHg 86%
    13:00 +3°C° 0 mm 2 m/s 620 mmHg 86%
    14:00 +2°C° 0,4 mm 2 m/s 620 mmHg 89%
    15:00 +1°C° 0,4 mm 2 m/s 620 mmHg 91%
    16:00 +1°C° 0,4 mm 2 m/s 620 mmHg 94%
    17:00 +1°C° 1,2 mm 1 m/s 620 mmHg 95%
    18:00 +1°C° 1,2 mm 1 m/s 620 mmHg 95%
    19:00 +1°C° 1,2 mm 1 m/s 621 mmHg 96%
    20:00 -1°C° 0,9 mm 2 m/s 621 mmHg 95%
    21:00 -2°C° 0,9 mm 2 m/s 621 mmHg 95%
    22:00 -2°C° 0,9 mm 2 m/s 621 mmHg 94%
    23:00 -4°C° 1 mm 3 m/s 622 mmHg 93%

    26 Noiembrie, Duminică

    Timp Temperatura Precipitaţii Vânt Presiune Umiditate
    00:00 -4°C° 1 mm 3 m/s 622 mmHg 92%
    01:00 -5°C° 1 mm 4 m/s 622 mmHg 91%
    02:00 -6°C° 0,7 mm 3 m/s 622 mmHg 91%
    03:00 -7°C° 0,7 mm 3 m/s 622 mmHg 91%
    04:00 -8°C° 0,7 mm 3 m/s 623 mmHg 91%
    05:00 -8°C° 0,4 mm 3 m/s 623 mmHg 91%
    06:00 -9°C° 0,4 mm 3 m/s 623 mmHg 92%
    07:00 -9°C° 0,4 mm 3 m/s 624 mmHg 92%
    08:00 -9°C° 0,2 mm 3 m/s 624 mmHg 89%
    09:00 -9°C° 0,2 mm 3 m/s 625 mmHg 87%
    10:00 -10°C° 0,2 mm 3 m/s 625 mmHg 85%
    11:00 -9°C° 0,2 mm 3 m/s 625 mmHg 84%
    12:00 -9°C° 0,2 mm 3 m/s 625 mmHg 83%
    13:00 -9°C° 0,2 mm 3 m/s 625 mmHg 82%
    14:00 -9°C° 0,2 mm 2 m/s 625 mmHg 83%
    15:00 -9°C° 0,2 mm 2 m/s 625 mmHg 85%
    16:00 -9°C° 0,2 mm 2 m/s 625 mmHg 86%
    17:00 -9°C° 0,2 mm 2 m/s 626 mmHg 87%
    18:00 -10°C° 0,2 mm 2 m/s 626 mmHg 88%
    19:00 -10°C° 0,2 mm 2 m/s 626 mmHg 89%
    20:00 -10°C° 0,2 mm 2 m/s 626 mmHg 90%
    21:00 -10°C° 0,2 mm 2 m/s 626 mmHg 90%
    22:00 -12°C° 0,2 mm 2 m/s 626 mmHg 90%
    23:00 -12°C° 0,1 mm 2 m/s 626 mmHg 90%

    27 Noiembrie, Luni

    Timp Temperatura Precipitaţii Vânt Presiune Umiditate
    00:00 -12°C° 0,1 mm 2 m/s 626 mmHg 90%
    01:00 -12°C° 0,1 mm 2 m/s 626 mmHg 90%
    02:00 -12°C° 0 mm 2 m/s 626 mmHg 90%
    03:00 -12°C° 0 mm 2 m/s 626 mmHg 90%
    04:00 -13°C° 0 mm 2 m/s 626 mmHg 90%
    05:00 -13°C° 0 mm 2 m/s 626 mmHg 89%
    06:00 -13°C° 0 mm 2 m/s 626 mmHg 89%
    07:00 -13°C° 0 mm 2 m/s 626 mmHg 89%
    08:00 -12°C° 0 mm 2 m/s 626 mmHg 86%
    09:00 -9°C° 0 mm 2 m/s 627 mmHg 83%
    10:00 -8°C° 0 mm 2 m/s 627 mmHg 80%
    11:00 -7°C° 0 mm 2 m/s 627 mmHg 78%
    12:00 -6°C° 0 mm 2 m/s 627 mmHg 75%
    13:00 -6°C° 0 mm 2 m/s 627 mmHg 73%
    14:00 -6°C° 0 mm 1 m/s 626 mmHg 77%
    15:00 -7°C° 0 mm 1 m/s 626 mmHg 81%
    16:00 -8°C° 0 mm 1 m/s 625 mmHg 85%
    17:00 -9°C° 0 mm 1 m/s 625 mmHg 85%
    18:00 -9°C° 0 mm 1 m/s 625 mmHg 86%
    19:00 -12°C° 0 mm 2 m/s 624 mmHg 87%
    20:00 -12°C° 0 mm 2 m/s 624 mmHg 85%
    21:00 -12°C° 0 mm 2 m/s 624 mmHg 82%
    22:00 -13°C° 0 mm 2 m/s 624 mmHg 79%
    23:00 -12°C° 0 mm 2 m/s 624 mmHg 77%

    28 Noiembrie, Marţi

    Timp Temperatura Precipitaţii Vânt Presiune Umiditate
    00:00 -12°C° 0 mm 2 m/s 623 mmHg 74%
    01:00 -12°C° 0 mm 2 m/s 623 mmHg 72%
    02:00 -12°C° 0 mm 2 m/s 623 mmHg 70%
    03:00 -12°C° 0 mm 2 m/s 623 mmHg 69%
    04:00 -12°C° 0 mm 2 m/s 622 mmHg 68%
    05:00 -10°C° 0 mm 2 m/s 622 mmHg 67%
    06:00 -10°C° 0 mm 2 m/s 622 mmHg 67%
    07:00 -10°C° 0 mm 2 m/s 622 mmHg 66%
    08:00 -8°C° 0 mm 2 m/s 622 mmHg 67%
    09:00 -6°C° 0 mm 1 m/s 622 mmHg 67%
    10:00 -3°C° 0 mm 1 m/s 623 mmHg 67%
    11:00 -2°C° 0 mm 1 m/s 622 mmHg 67%
    12:00 -1°C° 0 mm 1 m/s 622 mmHg 67%
    13:00 0°C° 0 mm 1 m/s 622 mmHg 67%
    14:00 -1°C° 0 mm 1 m/s 621 mmHg 72%
    15:00 -3°C° 0 mm 1 m/s 620 mmHg 77%
    16:00 -4°C° 0 mm 1 m/s 619 mmHg 82%
    17:00 -7°C° 0 mm 2 m/s 619 mmHg 82%
    18:00 -8°C° 0 mm 2 m/s 619 mmHg 82%
    19:00 -9°C° 0 mm 2 m/s 618 mmHg 83%
    20:00 -9°C° 0 mm 2 m/s 618 mmHg 82%
    21:00 -9°C° 0 mm 2 m/s 618 mmHg 81%
    22:00 -9°C° 0 mm 2 m/s 618 mmHg 80%
    23:00 -10°C° 0 mm 2 m/s 617 mmHg 79%
    Arată mai mult